Twin Bridges, CA

4:58 AM PST on February 06, 2016 (GMT -0800)
Lake Tahoe

Weather History for KTVL - July, 2013

Change the Weather History Date:

Sunday, July 14, 2013

  Actual Average Record
Temperature  
Mean Temperature 63 °F 61 °F  
Max Temperature 84 °F 81 °F 92 °F (2014)
Min Temperature 42 °F 42 °F 33 °F (1932)
Degree Days  
Heating Degree Days 2 4  
Month to date heating degree days 21 74  
Since 1 June heating degree days 215 384  
Since 1 July heating degree days 21 74  
Cooling Degree Days 0 1  
Month to date cooling degree days 32 2  
Year to date cooling degree days 53 3  
Since 1 June cooling degree days 53 3  
Growing Degree Days 12 (Base 50)    
Moisture  
Dew Point 37 °F    
Average Humidity 44    
Maximum Humidity 76    
Minimum Humidity 11    
Precipitation  
Precipitation 0.00 in - 0.06 in (1941)
Month to date precipitation 0.01  
Year to date precipitation 5.34  
Sea Level Pressure  
Sea Level Pressure 30.06 in    
Wind  
Wind Speed 3 mph (South)    
Max Wind Speed 21 mph    
Max Gust Speed 29 mph    
Visibility 10 miles    
Events      
T = Trace of Precipitation, MM = Missing Value Source: NWS Daily Summary

Daily Weather History Graph

Daily Weather History Graph

Search for Another Location

Airport or City:

Trip Planner

Search our weather history database for the weather conditions in past years. The results will help you decide how hot, cold, wet, or windy it might be!

Date:

Astronomy

Jul. 14, 2013 Rise Set
Actual Time 5:46 AM PDT 8:24 PM PDT
Civil Twilight 5:15 AM PDT 8:56 PM PDT
Nautical Twilight 4:36 AM PDT 9:34 PM PDT
Astronomical Twilight 3:52 AM PDT 10:18 PM PDT
Moon 12:04 PM PDT (7/14) 11:44 PM PDT (7/14)
Length of Visible Light 15h 40m
Length of Day
14h 38m
Waxing Crescent, 36% of the Moon is Illuminated
Jul 14
Waxing Crescent
Jul 15
First Quarter
Jul 22
Full
Jul 29
Last Quarter
Aug 6
New

Hourly Weather History & Observations

Time (PDT) Temp. Windchill Dew Point Humidity Pressure Visibility Wind Dir Wind Speed Gust Speed Precip Events Conditions
12:53 AM 51.1 °F - 37.0 °F 59% 30.09 in 10.0 mi Calm Calm - N/A   Clear
1:53 AM 48.9 °F - 37.0 °F 64% 30.08 in 10.0 mi Calm Calm - N/A   Clear
2:53 AM 46.0 °F - 37.0 °F 71% 30.09 in 10.0 mi Calm Calm - N/A   Clear
3:53 AM 45.0 °F - 36.0 °F 71% 30.09 in 10.0 mi Calm Calm - N/A   Clear
4:53 AM 43.0 °F 40.3 °F 35.1 °F 74% 30.10 in 10.0 mi South 4.6 mph - N/A   Clear
5:53 AM 42.1 °F 40.2 °F 34.0 °F 73% 30.12 in 10.0 mi South 3.5 mph - N/A   Clear
6:53 AM 44.1 °F - 35.1 °F 71% 30.13 in 10.0 mi Calm Calm - N/A   Clear
7:53 AM 54.0 °F - 37.0 °F 53% 30.11 in 10.0 mi Calm Calm - N/A   Clear
8:53 AM 66.0 °F - 44.1 °F 45% 30.09 in 10.0 mi NE 4.6 mph - N/A   Clear
9:53 AM 71.1 °F - 42.1 °F 35% 30.06 in 10.0 mi NE 6.9 mph - N/A   Clear
10:53 AM 75.9 °F - 42.1 °F 30% 30.06 in 10.0 mi Variable 3.5 mph - N/A   Clear
11:53 AM 77.0 °F - 42.1 °F 29% 30.06 in 10.0 mi NNE 10.4 mph - N/A   Clear
12:53 PM 81.0 °F - 37.0 °F 21% 30.05 in 10.0 mi Variable 3.5 mph - N/A   Clear
1:53 PM 82.9 °F - 23.0 °F 11% 30.03 in 10.0 mi South 9.2 mph 18.4 mph N/A   Clear
2:53 PM 82.0 °F - 30.9 °F 16% 30.04 in 10.0 mi South 8.1 mph - N/A   Clear
3:53 PM 82.0 °F - 33.1 °F 17% 30.02 in 10.0 mi Variable 6.9 mph - N/A   Clear
4:53 PM 80.1 °F - 33.1 °F 18% 30.03 in 10.0 mi SSW 6.9 mph - N/A   Clear
5:53 PM 78.1 °F - 34.0 °F 20% 30.03 in 10.0 mi Variable 6.9 mph - N/A   Clear
6:53 PM 75.9 °F - 35.1 °F 23% 30.04 in 10.0 mi SSW 4.6 mph - N/A   Clear
7:53 PM 71.1 °F - 39.0 °F 31% 30.03 in 10.0 mi SSW 5.8 mph - N/A   Clear
8:53 PM 68.0 °F - 39.0 °F 35% 30.01 in 10.0 mi SSE 8.1 mph - N/A   Clear
9:53 PM 64.9 °F - 39.0 °F 39% 30.01 in 10.0 mi South 5.8 mph - N/A   Clear
10:53 PM 59.0 °F - 39.0 °F 48% 30.01 in 10.0 mi Calm Calm - N/A   Clear
11:53 PM 55.0 °F - 39.0 °F 55% 30.02 in 10.0 mi Calm Calm - N/A   Clear